Content
SEND FEEDBACK

Daily
Averages
Monthly
Summary
United States of America

RALEIGH, NORTH CAROLINA


Home > North America > United States > North Carolina
Elevation: 376 feet     Latitude: 35 52N     Longitude: 078 47W

WEATHER
 
SELECT A DAY
Number of Records: 192,889;   Date Range: 1/1/95 - 7/26/14
 
SHARE

PRINT THIS DATA

[ ← Previous Day ]
WEATHER ALMANAC - MARCH 3, 2013
[ Next Day → ]
[ °C ]   °F
Weather ElementAverageHighLow
Temperature35.8 °F46 °F (3:51 pm)28 °F (2:51 am)
Dewpoint17.5 °F19.9 °F (11:51 am)14 °F (11:51 pm)
Humidity48.6 %67 % (5:51 am)34 % (3:51 pm)
Barometer29.91 in29.98 in (9:51 pm)29.84 in (2:51 pm)
Wind Speed4.4 mph10.4 mph (4:51 pm)
Wind Gust17.3 mph (1:51 pm)
Weather ElementAverage
Visibility10 mi
Wind DirectionESE (120.4 °)

Weather ElementTotal
Precipitation---
Heating Degree Days28 (Base 65)
Averaged from 23 records on March 3, 2013
WEATHER CONDITIONS BREAKOUT
WIND DIRECTION BREAKOUT
WEATHER BY HOUR - MARCH 3, 2013
[ °C ]   °F
Local TimeTemperatureDewpointHumidityBarometerVisibilityWind DirectionWind SpeedGust SpeedPrecipitationEventsConditions
1:51 AM28.9 °F17.1 °F61 %29.91 in10.0 miCalmScattered Clouds
2:51 AM28.0 °F17.1 °F63 %29.90 in10.0 miCalmScattered Clouds
3:51 AM28.0 °F17.1 °F63 %29.90 in10.0 miCalmMostly Cloudy
4:51 AM28.0 °F17.1 °F63 %29.91 in10.0 miCalmMostly Cloudy
5:51 AM28.9 °F19.0 °F67 %29.92 in10.0 miCalmMostly Cloudy
6:51 AM30.2 °F17.6 °F60 %29.91 in10.0 miCalmMostly Cloudy
7:51 AM32.0 °F18.0 °F56 %29.94 in10.0 miVariable3.5 mphMostly Cloudy
8:51 AM35.1 °F17.1 °F48 %29.94 in10.0 miNorth (360°)9.2 mphPartly Cloudy
9:51 AM37.9 °F18.0 °F45 %29.93 in10.0 miVariable6.9 mphScattered Clouds
10:51 AM39.0 °F18.0 °F43 %29.93 in10.0 miWest (270°)8.1 mphScattered Clouds
11:51 AM42.1 °F19.9 °F41 %29.92 in10.0 miWNW (290°)6.9 mphMostly Cloudy
12:51 PM42.1 °F18.0 °F38 %29.90 in10.0 miCalmMostly Cloudy
1:51 PM44.1 °F19.0 °F37 %29.86 in10.0 miNNW (330°)8.1 mph17.3 mphMostly Cloudy
2:51 PM44.6 °F19.4 °F37 %29.84 in10.0 miWNW (290°)8.1 mphScattered Clouds
3:51 PM46.0 °F19.0 °F34 %29.85 in10.0 miWest (270°)9.2 mphScattered Clouds
4:51 PM44.6 °F19.4 °F37 %29.84 in10.0 miNW (320°)10.4 mph17.3 mphScattered Clouds
5:51 PM42.1 °F19.0 °F40 %29.88 in10.0 miVariable4.6 mphScattered Clouds
6:51 PM37.9 °F17.1 °F43 %29.91 in10.0 miNW (310°)8.1 mph16.1 mphScattered Clouds
7:51 PM36.0 °F16.0 °F44 %29.95 in10.0 miVariable5.8 mph17.3 mphScattered Clouds
8:51 PM33.8 °F15.8 °F48 %29.95 in10.0 miVariable4.6 mphPartly Cloudy
9:51 PM33.1 °F15.1 °F48 %29.98 in10.0 miNNW (330°)4.6 mphPartly Cloudy
10:51 PM30.9 °F15.1 °F52 %29.98 in10.0 miVariable3.5 mphPartly Cloudy
11:51 PM30.9 °F14.0 °F50 %29.98 in10.0 miCalmPartly Cloudy
Hourly data recorded from KRDU, located miles away from Raleigh, North Carolina







STORIES FROM OUR PARTNERS